"Pseudo-MPEC" for A10DsIM

Created 2021 Nov 26 3:07:05 UT using Find_Orb

Click here for an explanation of pseudo-MPECs

 
 Astrometry: 
     A10DsIM  C2021 11 23]*H,'e!?'4En6]Q5W-I;pfDB_op-)-kQn-2YbQ:wPbghmVy%nJE8F51
     A10DsIM  C2021 11 23m+aeUnH=9y1GeDcq8:GT[iH8hq\M=tt691^aNx`9y%7bvOWx^8g,F51
     A10DsIM  C2021 11 23*Vbl5?gcu#,;c59#N8)fUYo2WSJE9/U1Gk*hU%EW1auxOm[oH;dZF51
     A10DsIM  C2021 11 24.31997801 03 29.27 -09 32 59.5    ~BODq 19.27oVNEOCPT05
     A10DsIM  C2021 11 24.32325301 03 31.90 -09 32 24.1    ~BODq 19.26oVNEOCPT05
     A10DsIM  C2021 11 24.32966101 03 37.30 -09 31 14.9    ~BODq 18.99oVNEOCPT05
     A10DsIM  C2021 11 24.34070901 03 46.38 -09 29 14.9    ~BODq 19.17oVNEOCPT05
     A10DsIM KC2021 11 24Lr^K1mg$NYbp4gES#@SWs\JTQrIp,Phk!S8(Aq0Yh!vgTS.a1[D5104
     A10DsIM KC2021 11 24iO.mEnCg_DARbI6(q^)GK7!3yfnw!^LcQrXt9=rZoyvrilU`P^.P104
     A10DsIM KC2021 11 24c5OO^PvR:'JrUdiMx9LO1AfVL%N/'=^VUdaQpU2uMg9p;7/A@u7bL01
     A10DsIM KC2021 11 24;H4t@)H3gXC+stNaQ!NjLC'[?H0VdLXRFyHP![qY$W-S3[:d7BTc104
     A10DsIM KC2021 11 24f5D+7/;![N-[MU1(k];I:HM*p7A9E*YZ(r7YMLa[.46sp'V2QJZ-L01
     A10DsIM KC2021 11 24wdXh_K3i*HLH@c[mjC(x1?K((:+RN9*mqrRB`vbHN(ecOU,2-rQYL01
     A10DsIM KC2021 11 24T+aH7mvPwi!Jvwdr#L@Q.+n7;U#HMT'[:B)Qj%[AI6kE3/q657AwL01
     A10DsIM KC2021 11 24v5ikjl:q!uR;r[Fb;')=O=P84@(Ka%!vnmgaa8\kW.#pA^T_U]_uL01
     A10DsIM KC2021 11 24.82619201 10 41.96 -08 03 00.6    ~BOKq 18.6 GXNEOCP595
     A10DsIM KC2021 11 24j%W;f]q+d]lKv.ag?pmvfi4t(i1_(-OaE'!D-'S+Wlx[bF2)5F#qG02
     A10DsIM KC2021 11 24j5Vrv,Z:+apG_WMA0XxL$QbgwNpftM]d:7lqa+21,rhY9xkk%IBAG02
     A10DsIM KC2021 11 246?o`+Chi.^]y+7Astrometryplv(W(TE;Gw`9V/[QUF``D(),g@+G02
     A10DsIM KC2021 11 24.84533601 10 57.40 -07 59 38.6    ~BOKq 18.7 GXNEOCP595
     A10DsIM KC2021 11 24rW!-]u5ltP9K6R(hYCZ`]$igd0ao\?JLaOS#lmN]EV]3j]V$wn(@K51
     A10DsIM KC2021 11 24[FPv;foefvLo8r^M!Aredacted;r1X`UopYmd;gyav*kAKgHt%NGK51
     A10DsIM KC2021 11 24UH_M3rgig8HZdHVK@,($wI)?q$xy%TMV\:N#);;RPrpRNuLZ#*1'K51
     A10DsIM KC2021 11 24.85461001 11 04.83 -07 58 00.7    ~BOKq 18.9 GXNEOCP595
     A10DsIM KC2021 11 25.00363701 13 08.41 -07 30 19.0    ~BP0b 18.7 GXNEOCPY00
     A10DsIM KC2021 11 25.00720001 13 11.18 -07 29 41.7    ~BP0b 18.8 GXNEOCPY00
     A10DsIM KC2021 11 25.01065701 13 13.95 -07 29 05.6    ~BP0b 19.0 GXNEOCPY00
     A10DsIM KC2021 11 254Pxlclick)RqE`x!v8)ByoNOgD[o?a)wk;$%EVKN.BNI@)hereEYW34
     A10DsIM KC2021 11 253yUfo)o\'P,F75w\*!b*Xg2@0`i*Dic1hrw]!lt\v]goZI\e^nSpW34
     A10DsIM |C2021 11 254cWXGU!1fi]c'9/Uu+5Xr*9A^O-BC:91#JCJ%D5EhM.of=Ja_ttC807
     A10DsIM |C2021 11 253o\V$9pqJMunRTlAyZnaOZ$SvZlpT6]JrSPlQ$wfordV,Wx+kFmu807
     A10DsIM KC2021 11 25'KNW,A':1)qy3cP5Y.gDesU=$FcKADQJU7k\+J_q#rZ-b:;O8HGwW34
     A10DsIM |C2021 11 25m;,i_]m;N^wY:R]SI:%^GgRcexplanationjCd7AE^\Q'uhtj2hO807
     A10DsIM  C2021 11 25tgYC'9[)3lCWiaHd,a7Bv%qfA).Kd(lwM6;V=):`lUcVJWSl-YcMF51
     A10DsIM  C2021 11 25TG\Y1Kbxyy:UpCXd]$?F4[Jk5qRHZ[\F4a/3`b'pX$(va,;btQ2fF51
     A10DsIM  C2021 11 25@)rhxDSnZ)Bc\%w,7!h3bNNJIY75y@aA8:@l.TF7Pc-3h*s%_b8HF51
     A10DsIM KC2021 11 266@L_=NS8jOP*Iv8#B*T+kAsv:x[Vj]G1d,e'5r?%GJ/pF!tC+(Nw858
     A10DsIM KC2021 11 26IM=TbtEAV'uypmsuoC^ei:9fEA;vD=#bq@6p@W88!7/o0^Sw]w7w858
     A10DsIM KC2021 11 26c6rXg=OjY!0oq*xBSZ'Df@Rc$OUljM%WDTHWU2L'q,%9K2M,5rrU858

Station data:
(104) San Marcello Pistoiese  (N44.063037 E10.804200)  Italy. 0.40-m f/5
   reflector.
(595) Farra d'Isonzo  (N45.915734 E13.525780)  Italy.  Observers L.
   Bittesini, F. Fabris, E. Pettarin, F. Piani. Measurer E. Pettarin. 0.30-m
   f/4.5 reflector + CCD.
(807) Cerro Tololo Observatory, La Serena  (S30.169136 W70.805900)  Chile.
(858) Tebbutt Observatory, Edgewood  (N35.093872 W106.220000)  US/New Mexico.
(F51) Pan-STARRS 1, Haleakala  (N20.707235 W156.255910)  US/Hawaii.
   Observers N. Primak, A. Schultz, S. Watters, J. Thiel, T. Goggia. Measurer
   PS1 Science Consortium. 1.8-m Ritchey-Chrétien + CCD.
(G02) KYSUCE Observatory, Kysucke Nove Mesto  (N49.307316 E18.765390).
(K51) Osservatorio del Celado, Castello Tesino  (N46.029412 E11.657900)
   Italy.
(L01) Višnjan Observatory, Tičan  (N45.290900 E13.749300)  Croatia.
   Observers K. Korlević, E. Pettarin. Measurer E. Pettarin. 1.0-m f/2.9
   reflector + CCD.
(T05) ATLAS-HKO, Haleakala  (N20.707573 W156.257010)  US/Hawaii.  Observers
   L. Denneau, A. Heinze, H. Weiland, J. Tonry, H. Flewelling, A.
   Fitzsimmons, D. Young, B. Stalder. Measurers L. Denneau, A. Heinze, J.
   Tonry. 0.5-m f/2.0 Schmidt + CCD.
(W34) Squirrel Valley Observatory, Columbus  (N35.225393 W82.154700)
   US/North Carolina.  Observer R. L. Flynn. 0.35-m f/1.9 Schmidt-Cassegrain
   + CCD.
(Y00) SONEAR Observatory, Oliveira  (S20.715082 W44.784960)  Brazil.
   Observers C. Jacques, E. Pimentel, J. Barros. Measurer C. Jacques. 0.28-m
   f/2.2 astrograph + CCD.

Orbital elements:  A10DsIM
   Perihelion 2021 Oct 14.524564 +/- 0.0185029 TT = 12:35:22 (JD 2459502.024564)
Epoch 2021 Nov 26.0 TT = JDT 2459544.5   Earth MOID: 0.0330   Ma: 0.0049
M  15.07490008 +/- 0.0589206        (J2000 ecliptic)          AutoNEOCP
n   0.35490866 +/- 0.00123802       Peri.  289.07949 +/- 0.0107424
a   1.97571811 +/- 0.00459447       Node    76.18292 +/- 0.0073579
e   0.5456963 +/- 0.00110119        Incl.    4.13861 +/- 0.0067112
P   2.78                   H 22.5   G  0.15   U  8.2  
q 0.89757603 +/- 9.66802e-5    Q 3.05386020 +/- 0.00930334
From 39 observations 2021 Nov. 23-26; mean residual 0".40
Residuals in arcseconds: 
211123 F51  .26+  .02-    211124 L01  .41-  .08+    211125 Y00  .73+  .02+    
211123 F51  .23+  .02-    211124 L01  1.1-  .10-    211125 W34  .40+  .25+    
211123 F51  .14+  .07-    211124 595  .16-  .18-    211125 W34  .34+  .17-    
211124 T05  .62+  .57+    211124 G02  .31-  .18+    211125 807  .70-  .40+    
211124 T05  .85-  .27+    211124 G02  .20-  .25+    211125 807  .51-  .30+    
211124 T05  .06+  .39-    211124 G02  .64-  .53+    211125 W34  .09-  .11+    
211124 T05  1.7-  .82-    211124 595  .15+  .25-    211125 807  .58-  .17+    
211124 104  .53-  .13+    211124 K51  .22+  .11+    211125 F51  .03+  .29-    
211124 104  .25+  .12+    211124 K51  .12+  .06+    211125 F51  .05-  .32-    
211124 L01  .21-  .04+    211124 K51  .59+  .17+    211125 F51  .21+  .09-    
211124 104  .50+  .28-    211124 595  .31-  .19-    211126 858  .15-  .03-    
211124 L01  .37-  .23-    211125 Y00  .15+  .10-    211126 858  .32-  .15-    
211124 L01  .18-  .01+    211125 Y00  .18-  .01+    211126 858  .00   .04-    

Ephemerides (geocentric):
Date (UTC) HH   RA              Dec         delta   r     elong  mag " sig PA
---- -- -- --  -------------   -----------  ------ ------ -----  --- ---- ---
2021 11 26 03  01 27 45.131   -04 23 17.14  .09643 1.0556 133.5 19.2 .023  96
2021 11 26 04  01 28 16.030   -04 16 37.48  .09660 1.0559 133.6 19.2 .024  92
2021 11 26 05  01 28 46.812   -04 09 59.15  .09679 1.0562 133.7 19.2 .024  88
2021 11 26 06  01 29 17.479   -04 03 22.15  .09697 1.0565 133.9 19.2 .025  85
2021 11 26 07  01 29 48.031   -03 56 46.49  .09715 1.0567 134.0 19.2 .026  81
2021 11 26 08  01 30 18.467   -03 50 12.15  .09733 1.0570 134.1 19.2 .027  78
2021 11 26 09  01 30 48.790   -03 43 39.16  .09752 1.0573 134.2 19.2 .028  75
2021 11 26 10  01 31 18.998   -03 37 07.50  .09770 1.0575 134.4 19.2 .029  73
2021 11 26 11  01 31 49.092   -03 30 37.18  .09789 1.0578 134.5 19.2 .030  70
2021 11 26 12  01 32 19.073   -03 24 08.20  .09807 1.0581 134.6 19.2 .031  68
2021 11 26 13  01 32 48.941   -03 17 40.56  .09826 1.0584 134.7 19.2 .032  66
2021 11 26 14  01 33 18.697   -03 11 14.27  .09845 1.0586 134.9 19.2 .033  64
2021 11 26 15  01 33 48.340   -03 04 49.31  .09864 1.0589 135.0 19.3 .035  62
2021 11 26 16  01 34 17.872   -02 58 25.70  .09883 1.0592 135.1 19.3 .036  60
2021 11 26 17  01 34 47.292   -02 52 03.44  .09902 1.0595 135.2 19.3 .037  58
2021 11 26 18  01 35 16.601   -02 45 42.52  .09921 1.0597 135.3 19.3 .039  57
2021 11 26 19  01 35 45.800   -02 39 22.94  .09940 1.0600 135.5 19.3 .040  56
2021 11 26 20  01 36 14.889   -02 33 04.72  .09960 1.0603 135.6 19.3 .042  54
2021 11 26 21  01 36 43.868   -02 26 47.83  .09979 1.0605 135.7 19.3 .043  53
2021 11 26 22  01 37 12.738   -02 20 32.30  .09999 1.0608 135.8 19.3 .045  52
2021 11 26 23  01 37 41.498   -02 14 18.11  .10018 1.0611 135.9 19.3 .046  51
2021 11 27 00  01 38 10.151   -02 08 05.26  .10038 1.0614 136.1 19.3 .048  50
2021 11 27 01  01 38 38.695   -02 01 53.76  .10057 1.0616 136.2 19.3 .049  49
2021 11 27 02  01 39 07.131   -01 55 43.61  .10077 1.0619 136.3 19.3 .051  48
2021 11 27 03  01 39 35.460   -01 49 34.80  .10097 1.0622 136.4 19.3 .052  48
2021 11 27 04  01 40 03.682   -01 43 27.34  .10117 1.0625 136.5 19.3 .054  47
2021 11 27 05  01 40 31.798   -01 37 21.22  .10137 1.0627 136.6 19.3 .055  46
2021 11 27 06  01 40 59.808   -01 31 16.44  .10157 1.0630 136.7 19.3 .057  45
2021 11 27 07  01 41 27.712   -01 25 13.01  .10177 1.0633 136.8 19.3 .058  45
2021 11 27 08  01 41 55.510   -01 19 10.91  .10198 1.0636 137.0 19.3 .060  44
2021 11 27 09  01 42 23.204   -01 13 10.16  .10218 1.0638 137.1 19.3 .061  44
2021 11 27 10  01 42 50.793   -01 07 10.75  .10239 1.0641 137.2 19.3 .063  43
2021 11 27 11  01 43 18.279   -01 01 12.67  .10259 1.0644 137.3 19.3 .064  43
2021 11 27 12  01 43 45.660   -00 55 15.93  .10280 1.0647 137.4 19.3 .066  42
2021 11 27 13  01 44 12.939   -00 49 20.53  .10300 1.0650 137.5 19.3 .067  42
2021 11 27 14  01 44 40.114   -00 43 26.46  .10321 1.0652 137.6 19.3 .069  41
2021 11 27 15  01 45 07.187   -00 37 33.72  .10342 1.0655 137.7 19.3 .070  41
2021 11 27 16  01 45 34.158   -00 31 42.32  .10363 1.0658 137.8 19.3 .072  40
2021 11 27 17  01 46 01.028   -00 25 52.24  .10384 1.0661 137.9 19.3 .073  40
2021 11 27 18  01 46 27.796   -00 20 03.49  .10405 1.0663 138.0 19.3 .075  40
2021 11 27 19  01 46 54.463   -00 14 16.07  .10426 1.0666 138.2 19.3 .076  39
2021 11 27 20  01 47 21.031   -00 08 29.97  .10447 1.0669 138.3 19.3 .078  39
2021 11 27 21  01 47 47.498   -00 02 45.19  .10468 1.0672 138.4 19.3 .079  39
2021 11 27 22  01 48 13.865   +00 02 58.26  .10489 1.0674 138.5 19.3 .080  38
2021 11 27 23  01 48 40.133   +00 08 40.40  .10511 1.0677 138.6 19.3 .082  38
2021 11 28 00  01 49 06.303   +00 14 21.23  .10532 1.0680 138.7 19.3 .083  38
2021 11 28 01  01 49 32.374   +00 20 00.74  .10554 1.0683 138.8 19.3 .085  37
2021 11 28 02  01 49 58.347   +00 25 38.93  .10575 1.0686 138.9 19.3 .086  37